TimeMDT,TemperatureF,Dew PointF,Humidity,Sea Level PressureIn,VisibilityMPH,Wind Direction,Wind SpeedMPH,Gust SpeedMPH,PrecipitationIn,Events,Conditions,WindDirDegrees,DateUTC
12:53 AM,46.9,26.1,44,29.73,10.0,Calm,Calm,-,N/A,,Clear,0,2012-10-20 06:53:00
1:53 AM,46.0,26.1,46,29.70,10.0,Calm,Calm,-,N/A,,Clear,0,2012-10-20 07:53:00
2:53 AM,44.1,26.1,49,29.72,10.0,WSW,4.6,-,N/A,,Clear,240,2012-10-20 08:53:00
3:53 AM,44.1,28.0,53,29.70,10.0,Calm,Calm,-,N/A,,Clear,0,2012-10-20 09:53:00
4:53 AM,44.1,27.0,51,29.68,10.0,Calm,Calm,-,N/A,,Partly Cloudy,0,2012-10-20 10:53:00
5:53 AM,43.0,27.0,53,29.67,10.0,Variable,3.5,-,N/A,,Mostly Cloudy,0,2012-10-20 11:53:00
6:53 AM,48.9,25.0,39,29.64,10.0,SSW,4.6,-,N/A,,Clear,210,2012-10-20 12:53:00
7:53 AM,55.9,23.0,28,29.61,10.0,Calm,Calm,-,N/A,,Clear,0,2012-10-20 13:53:00
8:53 AM,55.9,23.0,28,29.59,10.0,Variable,3.5,-,N/A,,Clear,0,2012-10-20 14:53:00
9:53 AM,64.0,25.0,23,29.56,10.0,Variable,4.6,-,N/A,,Clear,0,2012-10-20 15:53:00
10:43 AM,66.2,24.8,21,29.71,10.0,SW,17.3,34.5,N/A,,Clear,220,2012-10-20 16:43:00
10:53 AM,64.9,24.1,21,29.55,10.0,SW,21.9,29.9,N/A,,Clear,220,2012-10-20 16:53:00
11:53 AM,68.0,24.1,19,29.53,10.0,WSW,11.5,23.0,N/A,,Clear,250,2012-10-20 17:53:00
12:36 PM,68.0,24.8,20,29.68,10.0,NW,16.1,24.2,N/A,,Clear,310,2012-10-20 18:36:00
12:53 PM,70.0,24.1,18,29.53,10.0,WNW,8.1,-,N/A,,Clear,300,2012-10-20 18:53:00
1:53 PM,69.1,23.0,18,29.52,10.0,West,10.4,23.0,N/A,,Scattered Clouds,270,2012-10-20 19:53:00
2:53 PM,71.1,24.1,17,29.50,10.0,West,19.6,34.5,N/A,,Clear,260,2012-10-20 20:53:00
3:53 PM,71.1,25.0,18,29.49,10.0,WSW,15.0,27.6,N/A,,Clear,240,2012-10-20 21:53:00
4:53 PM,68.0,24.1,19,29.51,10.0,West,16.1,28.8,N/A,,Partly Cloudy,270,2012-10-20 22:53:00
5:53 PM,63.0,26.1,25,29.54,10.0,North,4.6,-,N/A,,Scattered Clouds,10,2012-10-20 23:53:00
6:53 PM,61.0,25.0,25,29.54,10.0,East,6.9,-,N/A,,Partly Cloudy,90,2012-10-21 00:53:00
7:53 PM,59.0,25.0,27,29.54,10.0,SSE,3.5,-,N/A,,Clear,150,2012-10-21 01:53:00
8:53 PM,61.0,24.1,24,29.52,10.0,Calm,Calm,-,N/A,,Clear,0,2012-10-21 02:53:00
9:53 PM,54.0,24.1,31,29.54,10.0,Variable,5.8,-,N/A,,Clear,0,2012-10-21 03:53:00
10:53 PM,50.0,25.0,38,29.58,10.0,Calm,Calm,-,N/A,,Clear,0,2012-10-21 04:53:00
11:53 PM,46.9,26.1,44,29.60,10.0,Calm,Calm,-,N/A,,Scattered Clouds,0,2012-10-21 05:53:00